Location: Andershausen
(51.8462°N, 9.8595°E)
Time: 00:20:10
(UTC+00:00)

YAOGAN 1 - Pass Details

Date: 18 November 2025
Orbit: 605 x 607 km, 97.8° (Epoch: 04 December)

Event Time Altitude Azimuth Distance (km) Brightness Sun altitude
Rises 18:18:34 0° 187° (S) 2,854 6.0 -26.3°
Reaches altitude 10° 18:20:52 10° 196° (SSW) 1,955 5.3 -26.7°
Maximum altitude 18:24:48 36° 263° (W) 972 4.0 -27.3°
Drops below altitude 10° 18:28:45 10° 331° (NNW) 1,969 5.5 -27.9°
Sets 18:31:06 0° 340° (NNW) 2,877 6.3 -28.2°
